Sitka, AK

5:48 PM AKST on January 18, 2017 (GMT -0900)
Sitka Rocky Gutierrez

Weather History for PASI - November, 2011

Change the Weather History Date:

Thursday, November 24, 2011

  Actual Average Record
Temperature  
Mean Temperature 30 °F -  
Max Temperature 36 °F 41 °F 54 °F (1954)
Min Temperature 25 °F 34 °F 12 °F (2006)
Degree Days  
Heating Degree Days 34    
Moisture  
Dew Point 28 °F    
Average Humidity 88    
Maximum Humidity 100    
Minimum Humidity 64    
Precipitation  
Precipitation 0.18 in - - ()
Sea Level Pressure  
Sea Level Pressure 29.08 in    
Wind  
Wind Speed 14 mph (ENE)    
Max Wind Speed 28 mph    
Max Gust Speed 43 mph    
Visibility 5 miles    
Events Fog , Snow , Thunderstorm    
Averages and records for this station are not official NWS values.
T = Trace of Precipitation, MM = Missing Value Source: NWS Daily Summary

Daily Weather History Graph

Daily Weather History Graph

Search for Another Location

Airport or City:

Trip Planner

Search our weather history database for the weather conditions in past years. The results will help you decide how hot, cold, wet, or windy it might be!

Date:

Astronomy

Nov. 24, 2011 Rise Set
Actual Time 8:01 AM AKST 3:34 PM AKST
Civil Twilight 7:15 AM AKST 4:19 PM AKST
Nautical Twilight 6:27 AM AKST 5:08 PM AKST
Astronomical Twilight 5:41 AM AKST 5:54 PM AKST
Moon 7:35 AM AKST (11/24) 3:02 PM AKST (11/24)
Length of Visible Light 9h 04m
Length of Day
7h 32m
Waning Crescent, 0% of the Moon is Illuminated
Nov 24
Waning Crescent
Nov 24
New
Dec 2
First Quarter
Dec 10
Full
Dec 17
Last Quarter

Hourly Weather History & Observations

Time (AKST) Temp. Windchill Dew Point Humidity Pressure Visibility Wind Dir Wind Speed Gust Speed Precip Events Conditions
12:05 AM 28.4 °F 16.6 °F 26.6 °F 93% 28.92 in 2.5 mi ESE 16.1 mph 25.3 mph 0.00 in Snow Light Snow
12:09 AM 28.4 °F 16.2 °F 26.6 °F 93% 28.92 in 6.0 mi ESE 17.3 mph 25.3 mph 0.00 in Snow Light Snow
12:53 AM 33.1 °F 23.9 °F 25.0 °F 72% 28.91 in 10.0 mi SSE 12.7 mph 27.6 mph 0.01 in   Overcast
1:36 AM 32.0 °F 18.4 °F 24.8 °F 75% 28.92 in 2.5 mi South 26.5 mph 35.7 mph 0.00 in Snow Blowing Snow
1:44 AM 30.2 °F 15.7 °F 26.6 °F 86% 28.92 in 1.0 mi SSE 27.6 mph 40.3 mph 0.00 in Snow Blowing Snow
1:53 AM 30.9 °F 17.5 °F 27.0 °F 85% 28.92 in 1.5 mi SE 24.2 mph 42.6 mph 0.01 in Snow Blowing Snow
1:59 AM 32.0 °F 19.2 °F 28.4 °F 87% 28.91 in 3.0 mi SSE 23.0 mph 42.6 mph 0.00 in Snow Light Snow
2:13 AM 30.2 °F 16.8 °F 26.6 °F 86% 28.92 in 2.0 mi SSE 23.0 mph 33.4 mph 0.01 in Snow Light Snow
2:27 AM 33.8 °F 21.0 °F 28.4 °F 81% 28.93 in 5.0 mi SSE 25.3 mph 33.4 mph 0.02 in Snow Light Snow
2:53 AM 33.8 °F 21.6 °F 30.2 °F 87% 28.94 in 3.0 mi SSE 23.0 mph 38.0 mph N/A Snow Light Snow
3:43 AM 33.8 °F 21.9 °F 26.6 °F 75% 28.95 in 9.0 mi SSE 21.9 mph 32.2 mph 0.01 in   Mostly Cloudy
3:53 AM 33.8 °F 21.9 °F 26.6 °F 75% 28.96 in 10.0 mi South 21.9 mph 33.4 mph N/A   Mostly Cloudy
4:28 AM 33.8 °F 21.9 °F 24.8 °F 70% 28.97 in 10.0 mi SSE 21.9 mph 32.2 mph 0.00 in Thunderstorm Thunderstorm
4:44 AM 33.8 °F 23.2 °F 24.8 °F 70% 28.98 in 10.0 mi SSE 17.3 mph 25.3 mph 0.00 in   Overcast
4:53 AM 34.0 °F 23.4 °F 26.1 °F 73% 28.98 in 10.0 mi SSE 17.3 mph 24.2 mph 0.00 in   Overcast
5:53 AM 36.0 °F 27.5 °F 25.0 °F 64% 29.00 in 10.0 mi South 12.7 mph 25.3 mph N/A   Mostly Cloudy
6:53 AM 35.1 °F 28.6 °F 27.0 °F 72% 28.99 in 10.0 mi East 8.1 mph - N/A   Overcast
7:07 AM 33.8 °F 25.3 °F 26.6 °F 75% 29.00 in 3.0 mi ESE 11.5 mph - 0.00 in Snow Light Snow
7:26 AM 32.0 °F 22.5 °F 26.6 °F 80% 29.00 in 7.0 mi East 12.7 mph - 0.01 in Snow Light Snow
7:53 AM 32.0 °F 24.8 °F 27.0 °F 82% 29.00 in 7.0 mi East 8.1 mph - 0.01 in   Overcast
8:02 AM 32.0 °F 23.0 °F 26.6 °F 80% 29.00 in 1.5 mi ESE 11.5 mph - 0.00 in Snow Light Snow
8:10 AM 32.0 °F 23.0 °F 28.4 °F 87% 29.01 in 1.0 mi East 11.5 mph - 0.01 in Snow Light Snow
8:15 AM 32.0 °F 25.6 °F 28.4 °F 87% 29.01 in 2.0 mi East 6.9 mph - 0.02 in Snow Light Snow
8:27 AM 30.2 °F 24.3 °F 28.4 °F 93% 29.01 in 2.0 mi NE 5.8 mph - 0.02 in Snow Light Snow
8:30 AM 30.2 °F 26.7 °F 28.4 °F 93% 29.01 in 2.0 mi East 3.5 mph - 0.03 in Snow Light Snow
8:34 AM 30.2 °F 23.4 °F 28.4 °F 93% 29.02 in 0.8 mi SSE 6.9 mph - 0.03 in Snow Light Snow
8:48 AM 33.8 °F 29.6 °F 30.2 °F 87% 29.02 in 1.5 mi SE 4.6 mph - 0.04 in Snow Light Snow
8:53 AM 33.1 °F 30.0 °F 30.0 °F 89% 29.01 in 1.5 mi East 3.5 mph - 0.04 in Snow Light Snow
8:59 AM 32.0 °F 24.8 °F 28.4 °F 87% 29.02 in 2.0 mi SE 8.1 mph - 0.00 in Snow Light Snow
9:02 AM 33.8 °F 26.4 °F 30.2 °F 87% 29.02 in 1.0 mi WSW 9.2 mph - 0.01 in Snow Light Snow
9:07 AM 33.8 °F 23.2 °F 30.2 °F 87% 29.03 in 0.5 mi WSW 17.3 mph 27.6 mph 0.02 in Fog , Snow Light Snow
9:11 AM 32.0 °F 23.0 °F 30.2 °F 93% 29.03 in 2.0 mi West 11.5 mph 27.6 mph 0.03 in Snow Light Snow
9:18 AM 32.0 °F 25.6 °F 30.2 °F 93% 29.03 in 2.0 mi WNW 6.9 mph - 0.03 in Snow Light Snow
9:25 AM 32.0 °F 27.5 °F 30.2 °F 93% 29.04 in 5.0 mi WSW 4.6 mph - 0.03 in   Mostly Cloudy
9:53 AM 32.0 °F - 30.9 °F 96% 29.05 in 3.0 mi Calm Calm - 0.03 in Snow Light Snow
9:56 AM 32.0 °F 20.8 °F 30.2 °F 93% 29.05 in 1.2 mi SW 17.3 mph 23.0 mph 0.00 in Snow Light Snow
10:01 AM 30.2 °F 25.4 °F 26.6 °F 86% 29.05 in 0.2 mi NW 4.6 mph 23.0 mph 0.01 in Fog , Snow Heavy Snow
10:04 AM 30.2 °F 22.6 °F 28.4 °F 93% 29.06 in 2.5 mi WNW 8.1 mph 23.0 mph 0.01 in Snow Light Snow
10:08 AM 30.2 °F 23.4 °F 26.6 °F 86% 29.06 in 2.0 mi West 6.9 mph - 0.01 in Snow Light Snow
10:14 AM 30.2 °F 24.3 °F 28.4 °F 93% 29.06 in 0.8 mi WNW 5.8 mph - 0.01 in Snow Light Snow
10:17 AM 30.2 °F 21.3 °F 28.4 °F 93% 29.07 in 0.2 mi West 10.4 mph - 0.01 in Fog , Snow Heavy Snow
10:20 AM 32.0 °F 20.5 °F 28.4 °F 87% 29.07 in 0.1 mi NW 18.4 mph - 0.02 in Fog , Snow Heavy Snow
10:39 AM 30.2 °F 22.6 °F 30.2 °F 100% 29.07 in 1.0 mi NNW 8.1 mph - 0.04 in Snow Light Snow
10:48 AM 30.2 °F 19.3 °F 30.2 °F 100% 29.08 in 6.0 mi NNW 15.0 mph - 0.05 in Snow Light Snow
10:53 AM 32.0 °F 23.6 °F 30.9 °F 96% 29.08 in 7.0 mi NW 10.4 mph - 0.06 in Snow Light Snow
11:04 AM 30.2 °F 22.6 °F 28.4 °F 93% 29.08 in 10.0 mi North 8.1 mph - 0.00 in   Mostly Cloudy
11:53 AM 32.0 °F 24.8 °F 26.1 °F 79% 29.11 in 10.0 mi NNW 8.1 mph - 0.00 in   Scattered Clouds
12:53 PM 32.0 °F 23.6 °F 27.0 °F 82% 29.13 in 4.0 mi WNW 10.4 mph - 0.00 in Snow Light Snow
1:06 PM 32.0 °F 25.6 °F 28.4 °F 87% 29.14 in 7.0 mi WNW 6.9 mph - 0.00 in Snow Light Snow
1:47 PM 32.0 °F 22.5 °F 26.6 °F 80% 29.15 in 0.8 mi NW 12.7 mph 17.3 mph 0.00 in Snow Light Snow
1:48 PM 32.0 °F 22.5 °F 27.0 °F 82% 29.15 in 0.8 mi NW 12.7 mph 17.3 mph 0.00 in Snow Light Snow
1:53 PM 30.2 °F 21.9 °F 28.4 °F 93% 29.15 in 2.0 mi North 9.2 mph - 0.00 in Snow Light Snow
1:56 PM 30.2 °F 23.4 °F 28.4 °F 93% 29.15 in 3.0 mi North 6.9 mph - 0.00 in Snow Light Snow
2:02 PM 30.2 °F 24.3 °F 28.4 °F 93% 29.15 in 7.0 mi NNW 5.8 mph - 0.00 in Snow Light Snow
2:53 PM 30.0 °F - 26.1 °F 85% 29.16 in 10.0 mi Calm Calm - 0.00 in   Scattered Clouds
3:24 PM 30.2 °F 20.8 °F 28.4 °F 93% 29.18 in 2.5 mi NW 11.5 mph - 0.00 in Snow Light Snow
3:34 PM 30.2 °F 21.9 °F 28.4 °F 93% 29.19 in 4.0 mi NNW 9.2 mph - 0.00 in Snow Light Snow
3:53 PM 30.9 °F 23.5 °F 28.0 °F 89% 29.19 in 10.0 mi NNW 8.1 mph - 0.00 in   Overcast
4:14 PM 30.2 °F 20.8 °F 28.4 °F 93% 29.20 in 2.5 mi NNW 11.5 mph - 0.00 in Snow Light Snow
4:23 PM 30.2 °F 21.9 °F 28.4 °F 93% 29.21 in 1.0 mi NNW 9.2 mph - 0.00 in Snow Light Snow
4:30 PM 30.2 °F 20.2 °F 28.4 °F 93% 29.21 in 0.8 mi WNW 12.7 mph - 0.01 in Snow Light Snow
4:37 PM 30.2 °F 21.3 °F 28.4 °F 93% 29.21 in 1.0 mi WNW 10.4 mph - 0.01 in Snow Light Snow
4:44 PM 30.2 °F 21.3 °F 30.2 °F 100% 29.21 in 1.2 mi WNW 10.4 mph - 0.02 in Snow Light Snow
4:53 PM 30.0 °F 21.7 °F 28.9 °F 96% 29.22 in 1.2 mi NNW 9.2 mph - 0.02 in Snow Light Snow
5:02 PM 30.2 °F 24.3 °F 28.4 °F 93% 29.22 in 3.0 mi NNW 5.8 mph - 0.00 in Snow Light Snow
5:23 PM 28.4 °F 23.3 °F 28.4 °F 100% 29.23 in 5.0 mi East 4.6 mph - 0.00 in Snow Light Snow
5:41 PM 28.4 °F 24.6 °F 26.6 °F 93% 29.23 in 10.0 mi East 3.5 mph - 0.00 in   Scattered Clouds
5:53 PM 27.0 °F 20.5 °F 26.1 °F 96% 29.24 in 10.0 mi East 5.8 mph - 0.00 in   Partly Cloudy
6:53 PM 26.1 °F 20.5 °F 26.1 °F 100% 29.27 in 10.0 mi East 4.6 mph - N/A   Partly Cloudy
7:53 PM 25.0 °F 17.1 °F 24.1 °F 96% 29.30 in 10.0 mi East 6.9 mph - N/A   Mostly Cloudy
8:53 PM 26.1 °F 18.4 °F 23.0 °F 88% 29.34 in 10.0 mi East 6.9 mph - N/A   Clear
9:53 PM 25.0 °F 16.3 °F 21.9 °F 88% 29.38 in 10.0 mi East 8.1 mph - N/A   Clear
10:53 PM 26.1 °F 16.2 °F 23.0 °F 88% 29.41 in 10.0 mi ESE 10.4 mph - N/A   Clear
11:53 PM 28.0 °F 18.1 °F 24.1 °F 85% 29.44 in 10.0 mi ESE 11.5 mph - N/A   Clear